Japanese version Home page |
Updated on October 27, 2007 |
Profile
|
Orbital ElementsEpoch = 2001 June 20.0 TT T = 2001 June 11.6210 TT Peri. = 6.3996 e = 0.416559 Node = 336.2663 2000.0 q = 2.043148 AU Incl. = 10.9448 a = 3.501896 AU n = 0.1504005 P = 6.553 years
|
Finding Charts
|
Magnitudes Graphm1 = 12.5 + 5 log d + 10.0 log r
|
The orbital elements are printed on IAUC 8885.
|